Date,TemperatureHighF,TemperatureAvgF,TemperatureLowF,DewpointHighF,DewpointAvgF,DewpointLowF,HumidityHigh,HumidityAvg,HumidityLow,PressureMaxIn,PressureMinIn,WindSpeedMaxMPH,WindSpeedAvgMPH,GustSpeedMaxMPH,PrecipitationSumIn
2014-1-1,40.0,37.5,35.0,39.0,37.2,35.0,100,100,98,0.00,40.00,5,2,6,0.00
2014-1-2,42.0,42.0,42.0,42.0,42.0,42.0,100,100,100,0.00,40.00,0,0,0,0.00
2014-1-3,39.0,39.0,39.0,38.0,38.0,38.0,95,95,95,0.00,40.00,2,2,5,0.00
2014-1-4,39.0,37.3,36.0,37.0,35.0,33.0,100,92,79,0.00,40.00,2,2,3,0.00
2014-1-5,28.0,27.5,27.0,28.0,27.5,27.0,100,100,100,0.00,40.00,0,0,2,0.00
2014-2-1,43.0,38.6,33.0,37.0,33.4,30.0,100,83,70,0.00,40.00,3,1,5,0.00
2014-2-2,41.0,35.4,28.0,31.0,27.0,20.0,100,74,48,0.00,40.00,6,3,12,0.00
2014-2-3,38.0,34.5,30.0,25.0,23.5,22.0,81,64,52,0.00,40.00,3,1,6,0.00
2014-2-5,27.0,27.0,27.0,5.0,5.0,5.0,39,39,39,0.00,40.00,3,3,10,0.00
2014-2-6,28.0,28.0,28.0,11.0,11.0,11.0,48,48,48,0.00,40.00,6,6,9,0.00
2014-2-7,36.0,30.7,25.0,16.0,15.0,14.0,68,53,40,0.00,40.00,7,3,12,0.00
2014-2-8,40.0,32.5,28.0,31.0,19.2,12.0,100,61,37,0.00,40.00,5,3,9,0.00
2014-2-9,36.0,33.4,31.0,35.0,32.0,29.0,100,94,77,0.00,40.00,3,1,6,0.00
2014-2-22,39.0,39.0,39.0,38.0,38.0,38.0,98,98,98,0.00,40.00,3,3,7,0.00
2014-2-23,41.0,41.0,41.0,36.0,36.0,36.0,82,82,82,0.00,40.00,0,0,3,0.00
2014-2-28,45.0,44.3,42.0,41.0,37.5,25.0,85,77,50,0.00,40.00,1,0,3,0.00
2014-3-1,44.0,41.9,40.0,31.0,27.3,25.0,70,56,50,0.00,40.00,3,2,7,0.00
2014-3-2,39.0,38.0,37.0,39.0,37.7,36.0,100,99,98,0.00,40.00,5,2,7,0.00
2014-3-3,59.0,53.0,48.0,46.0,43.7,41.0,87,71,61,0.00,40.00,6,5,17,0.00
2014-3-4,52.0,47.0,42.0,50.0,45.0,41.0,100,93,85,0.00,40.00,3,2,9,0.00
2014-3-5,58.0,50.4,47.0,51.0,49.1,47.0,100,96,77,0.00,40.00,7,2,16,0.01
2014-3-6,49.0,49.0,49.0,48.0,45.5,43.0,95,88,80,0.00,40.00,6,4,15,0.00
2014-3-7,60.0,50.2,45.0,44.0,41.8,40.0,85,74,48,0.00,40.00,5,3,13,0.00
2014-3-8,49.0,47.6,42.0,49.0,45.7,41.0,100,94,73,0.00,40.00,2,1,6,0.02
2014-3-12,59.0,59.0,59.0,37.0,37.0,37.0,43,43,43,0.00,40.00,3,3,3,0.00
2014-3-13,42.0,40.0,38.0,41.0,39.0,37.0,98,97,96,0.00,40.00,1,0,2,0.00
2014-3-14,58.0,50.7,46.0,47.0,41.3,38.0,98,74,47,0.00,40.00,10,5,20,0.00
2014-3-16,46.0,46.0,46.0,46.0,45.7,45.0,100,99,98,0.00,40.00,2,2,8,0.00
2014-3-17,42.0,41.0,40.0,42.0,41.0,40.0,99,99,99,0.00,40.00,2,2,6,0.00
2014-3-18,49.0,47.8,47.0,43.0,41.4,40.0,86,78,73,0.00,40.00,0,0,2,0.00
2014-3-19,49.0,46.2,42.0,45.0,42.8,37.0,96,88,75,0.00,40.00,6,3,17,0.00
2014-3-25,53.0,50.0,48.0,43.0,38.8,35.0,84,67,51,0.00,40.00,3,2,5,0.00
2014-3-26,47.0,46.0,45.0,44.0,43.0,42.0,96,90,83,0.00,40.00,1,0,3,0.00
2014-3-27,45.0,45.0,45.0,43.0,43.0,43.0,93,93,93,0.00,40.00,1,1,3,0.00
2014-3-28,45.0,45.0,45.0,43.0,43.0,43.0,92,92,92,0.00,40.00,0,0,3,0.00
2014-3-29,54.0,54.0,54.0,45.0,45.0,45.0,72,72,72,0.00,40.00,3,3,9,0.00
2014-3-30,46.0,45.3,44.0,44.0,42.3,41.0,94,89,82,0.00,40.00,3,2,12,0.00
2014-3-31,63.0,52.4,37.0,39.0,37.0,33.0,100,59,32,0.00,40.00,8,3,14,0.00
2014-4-1,60.0,48.9,41.0,42.0,38.8,35.0,92,70,40,0.00,40.00,6,1,10,0.00
2014-4-2,54.0,47.6,44.0,43.0,40.2,33.0,95,77,48,0.00,40.00,2,1,7,0.00
2014-4-3,51.0,46.7,43.0,46.0,41.5,39.0,90,83,69,0.00,40.00,3,2,12,0.00
2014-4-4,57.0,49.4,44.0,43.0,40.1,36.0,93,72,46,0.00,40.00,5,2,12,0.00
2014-4-5,53.0,49.9,46.0,50.0,46.1,42.0,99,87,73,0.00,40.00,3,2,12,0.00
2014-4-6,56.0,52.1,47.0,45.0,42.9,41.0,88,71,61,0.00,40.00,3,1,6,0.00
2014-4-7,72.0,61.4,51.0,48.0,45.9,40.0,85,61,33,0.00,40.00,3,2,8,0.00
2014-4-8,57.0,52.7,50.0,52.0,49.2,46.0,98,89,69,0.00,40.00,3,2,9,0.00
2014-4-9,55.0,48.8,42.0,44.0,39.5,35.0,100,73,47,0.00,40.00,5,2,8,0.01
2014-4-10,57.0,48.4,43.0,40.0,38.0,36.0,84,68,45,0.00,40.00,7,2,10,0.00
2014-4-11,58.0,49.3,40.0,43.0,41.2,39.0,98,76,55,0.00,40.00,7,1,10,0.00
2014-4-12,59.0,50.2,42.0,42.0,40.7,38.0,95,71,52,0.00,40.00,7,3,14,0.00
2014-4-13,69.0,57.3,41.0,39.0,34.0,28.0,87,47,22,0.00,40.00,7,3,14,0.00
2014-4-14,42.0,42.0,42.0,35.0,35.0,35.0,77,77,77,0.00,40.00,1,1,2,0.00
2014-4-15,60.0,53.2,50.0,43.0,40.6,38.0,78,63,46,0.00,40.00,5,3,12,0.00
2014-4-16,54.0,51.0,49.0,48.0,46.0,44.0,93,84,75,0.00,40.00,2,2,10,0.00
2014-4-17,53.0,50.1,46.0,51.0,48.0,46.0,99,93,81,0.00,40.00,6,4,17,0.01
2014-4-18,57.0,51.1,44.0,43.0,38.4,35.0,97,64,43,0.00,40.00,3,2,9,0.00
2014-4-19,54.0,47.5,41.0,49.0,41.6,37.0,97,80,54,0.00,40.00,6,2,17,0.00
2014-4-20,61.0,51.8,45.0,43.0,39.0,33.0,86,65,37,0.00,40.00,6,2,8,0.00
2014-4-21,64.0,50.8,46.0,45.0,42.1,41.0,93,74,43,0.00,40.00,7,2,14,0.00
2014-4-22,55.0,45.6,41.0,45.0,41.1,38.0,98,85,53,0.00,40.00,6,2,12,0.02
2014-4-23,45.0,44.8,44.0,45.0,43.2,42.0,99,95,88,0.00,40.00,2,1,8,0.00
2014-4-24,56.0,52.0,46.0,45.0,41.5,39.0,86,68,57,0.00,40.00,6,3,15,0.00
2014-4-25,57.0,49.5,41.0,43.0,39.7,36.0,99,71,45,0.00,40.00,12,4,18,0.00
2014-4-26,57.0,49.6,44.0,45.0,38.0,31.0,91,67,37,0.00,40.00,16,9,22,0.00
2014-4-27,51.0,48.1,45.0,44.0,40.2,38.0,90,75,62,0.00,40.00,20,12,29,0.00
2014-4-28,60.0,48.6,44.0,41.0,39.0,33.0,85,72,38,0.00,40.00,10,6,14,0.00
2014-4-29,76.0,61.9,49.0,42.0,37.3,32.0,73,45,20,0.00,40.00,6,3,8,0.00
2014-4-30,81.0,68.5,57.0,48.0,41.2,33.0,54,38,24,0.00,40.00,8,3,14,0.00
2014-5-1,85.0,70.5,59.0,49.0,45.5,37.0,64,44,18,0.00,40.00,8,4,12,0.00
2014-5-2,72.0,63.1,56.0,53.0,48.5,39.0,81,61,30,0.00,40.00,15,8,21,0.00
2014-5-3,57.0,52.8,50.0,50.0,47.0,45.0,97,81,64,0.00,40.00,15,8,21,0.00
2014-5-4,57.0,52.4,49.0,51.0,48.4,47.0,94,86,71,0.00,40.00,14,8,24,0.00
2014-5-5,61.0,54.0,50.0,51.0,47.9,46.0,100,81,57,0.00,40.00,10,5,15,0.00
2014-5-6,63.0,55.3,50.0,52.0,45.4,40.0,100,72,45,0.00,40.00,6,2,9,0.00
2014-5-13,79.0,73.1,68.0,49.0,46.6,43.0,49,40,29,0.00,40.00,10,5,14,0.00
2014-5-14,82.0,70.0,59.0,52.0,49.3,44.0,66,49,33,0.00,40.00,8,4,14,0.00
2014-5-15,80.0,70.7,62.0,54.0,49.6,34.0,69,49,28,0.00,40.00,16,4,23,0.00
2014-5-16,66.0,59.4,55.0,50.0,47.9,44.0,80,66,49,0.00,40.00,14,8,17,0.00
2014-5-17,65.0,58.9,54.0,51.0,48.5,45.0,88,70,50,0.00,40.00,8,5,12,0.00
2014-5-18,66.0,57.5,53.0,52.0,49.6,46.0,88,75,48,0.00,40.00,13,4,18,0.00
2014-5-19,68.0,57.6,54.0,50.0,40.6,-99.9,86,61,42,0.00,40.00,10,5,15,0.00
2014-5-20,69.0,60.3,53.0,52.0,49.3,45.0,87,68,42,0.00,40.00,9,4,14,0.00
2014-5-21,65.0,57.1,52.0,51.0,48.7,46.0,83,74,55,0.00,40.00,5,3,8,0.00
2014-5-22,73.0,63.9,56.0,56.0,52.5,50.0,84,68,49,0.00,40.00,10,4,14,0.00
2014-5-23,67.0,62.3,59.0,57.0,55.4,53.0,90,79,69,0.00,40.00,14,6,20,0.00
2014-5-24,64.0,59.0,55.0,52.0,50.5,49.0,85,74,61,0.00,40.00,6,4,10,0.00
2014-5-25,60.0,56.3,55.0,53.0,50.1,48.0,92,80,69,0.00,40.00,7,4,10,0.00
2014-5-26,64.0,58.9,54.0,52.0,46.9,43.0,92,66,51,0.00,40.00,16,8,20,0.00
2014-5-27,66.0,58.4,52.0,47.0,43.8,39.0,76,59,38,0.00,40.00,7,4,13,0.00
2014-5-28,62.0,55.5,52.0,48.0,46.5,45.0,84,73,53,0.00,40.00,14,6,17,0.00
2014-5-29,62.0,56.5,53.0,49.0,46.6,44.0,80,70,52,0.00,40.00,10,7,16,0.00
2014-5-30,67.0,58.8,49.0,49.0,46.1,43.0,85,64,42,0.00,40.00,9,5,16,0.00
2014-5-31,74.0,64.0,53.0,53.0,48.0,46.0,82,58,39,0.00,40.00,7,3,12,0.00
2014-6-1,71.0,60.4,53.0,53.0,49.5,48.0,85,69,45,0.00,40.00,9,6,13,0.00
2014-6-2,76.0,65.0,52.0,54.0,51.9,49.0,97,65,41,0.00,40.00,5,2,12,0.00
2014-6-3,65.0,58.9,53.0,52.0,49.1,47.0,82,71,58,0.00,40.00,3,1,8,0.00
2014-6-4,67.0,59.6,52.0,51.0,48.9,47.0,85,69,54,0.00,40.00,5,2,12,0.00
2014-6-5,72.0,59.9,48.0,50.0,45.2,40.0,96,63,33,0.00,40.00,6,2,12,0.00
2014-6-6,76.0,64.3,48.0,51.0,44.4,35.0,94,53,23,0.00,40.00,6,3,12,0.00
2014-6-7,74.0,63.5,54.0,51.0,49.7,47.0,83,62,38,0.00,40.00,8,3,16,0.00
2014-6-8,77.0,63.6,53.0,56.0,52.6,51.0,96,69,45,0.00,40.00,6,2,9,0.00
2014-6-9,66.0,60.5,55.0,66.0,53.8,42.0,100,82,46,0.00,40.00,7,3,14,0.00
2014-6-10,66.0,58.3,51.0,49.0,46.6,43.0,77,66,51,0.00,40.00,2,1,6,0.00
2014-6-11,75.0,61.7,49.0,50.0,46.8,41.0,94,62,29,0.00,40.00,7,2,12,0.00
2014-6-12,72.0,61.5,55.0,52.0,49.8,48.0,83,67,42,0.00,40.00,6,2,15,0.00
2014-6-13,60.0,56.4,53.0,55.0,51.2,45.0,97,84,63,0.00,40.00,6,2,13,0.01
2014-6-14,62.0,57.1,54.0,53.0,47.5,45.0,92,71,60,0.00,40.00,3,2,10,0.00
2014-6-15,62.0,54.5,50.0,53.0,49.4,44.0,98,84,63,0.00,40.00,7,2,13,0.01
2014-6-16,66.0,55.8,49.0,50.0,46.8,42.0,97,75,43,0.00,40.00,3,1,9,0.01
2014-6-17,64.0,57.2,51.0,53.0,50.2,47.0,97,78,62,0.00,40.00,5,1,9,0.00
2014-6-18,68.0,58.8,54.0,51.0,47.8,46.0,84,68,52,0.00,40.00,3,1,8,0.00
2014-6-19,76.0,63.0,52.0,53.0,51.5,49.0,93,68,42,0.00,40.00,7,2,10,0.00
2014-6-20,66.0,59.4,53.0,56.0,45.8,42.0,89,63,43,0.00,40.00,5,2,12,0.00
2014-6-21,71.0,60.4,46.0,45.0,42.9,39.0,89,55,32,0.00,40.00,7,3,13,0.00
2014-6-22,75.0,63.0,48.0,47.0,44.4,40.0,86,54,28,0.00,40.00,7,2,15,0.00
2014-6-23,76.0,63.1,53.0,55.0,48.6,44.0,84,61,38,0.00,40.00,5,1,8,0.00
2014-6-24,74.0,64.1,59.0,56.0,55.0,54.0,87,74,50,0.00,40.00,3,1,7,0.00
2014-6-25,76.0,65.5,57.0,57.0,54.9,53.0,92,71,49,0.00,40.00,6,2,12,0.00
2014-6-26,72.0,65.3,61.0,60.0,54.9,47.0,95,70,60,0.00,40.00,3,2,10,0.00
2014-6-27,70.0,64.5,59.0,58.0,54.7,52.0,91,72,57,0.00,40.00,5,2,15,0.00
2014-6-28,70.0,62.8,57.0,57.0,55.3,51.0,96,78,57,0.00,40.00,3,2,15,0.00
2014-6-29,70.0,62.9,56.0,55.0,52.2,51.0,89,69,54,0.00,40.00,5,1,8,0.00
2014-6-30,76.0,65.6,52.0,53.0,52.4,51.0,98,66,45,0.00,40.00,6,3,13,0.00
2014-7-1,93.0,76.8,55.0,55.0,52.4,51.0,87,50,24,0.00,40.00,6,3,12,0.00
2014-7-2,81.0,68.6,61.0,59.0,54.9,50.0,82,63,38,0.00,40.00,6,1,9,0.00
2014-7-3,70.0,63.5,59.0,53.0,51.1,46.0,77,65,53,0.00,40.00,5,2,8,0.00
2014-7-4,73.0,61.8,55.0,51.0,48.7,46.0,76,63,44,0.00,40.00,8,2,14,0.00
2014-7-5,74.0,67.0,57.0,55.0,52.4,48.0,83,61,43,0.00,40.00,5,2,8,0.00
2014-7-6,84.0,73.1,61.0,61.0,57.4,53.0,78,60,45,0.00,40.00,8,3,14,0.00
2014-7-7,80.0,71.1,62.0,61.0,59.7,58.0,94,69,48,0.00,40.00,10,4,15,0.00
2014-7-8,83.0,69.7,58.0,59.0,56.1,54.0,92,65,40,0.00,40.00,7,2,15,0.00
2014-7-9,80.0,69.7,57.0,56.0,53.4,50.0,79,58,41,0.00,40.00,6,2,10,0.00
2014-7-10,83.0,69.8,56.0,57.0,52.8,44.0,93,60,26,0.00,40.00,9,2,13,0.00
2014-7-11,89.0,73.9,55.0,59.0,54.1,52.0,89,54,29,0.00,40.00,7,2,13,0.00
2014-7-12,89.0,75.3,60.0,59.0,56.1,53.0,84,55,32,0.00,40.00,6,2,9,0.00
2014-7-13,87.0,74.5,60.0,63.0,55.8,51.0,74,54,37,0.00,40.00,7,2,12,0.00
2014-7-14,85.0,72.1,61.0,60.0,57.7,56.0,84,62,41,0.00,40.00,5,2,9,0.00
2014-7-15,86.0,72.6,58.0,59.0,55.8,52.0,87,59,31,0.00,40.00,6,2,12,0.00
2014-7-16,88.0,73.0,58.0,58.0,55.6,53.0,84,58,34,0.00,40.00,5,2,10,0.00
2014-7-17,78.0,64.9,58.0,56.0,54.0,52.0,85,69,46,0.00,40.00,5,2,10,0.00
2014-7-18,77.0,65.1,56.0,57.0,53.2,50.0,85,67,46,0.00,40.00,3,1,10,0.00
2014-7-19,74.0,66.6,61.0,61.0,58.1,55.0,85,75,63,0.00,40.00,3,1,15,0.00
2014-7-20,65.0,59.9,57.0,57.0,54.1,52.0,95,82,62,0.00,40.00,5,2,9,0.00
2014-7-21,76.0,64.6,56.0,54.0,51.6,47.0,93,65,38,0.00,40.00,2,1,7,0.00
2014-7-22,72.0,62.5,54.0,58.0,53.6,51.0,94,73,61,0.00,40.00,3,1,7,0.00
2014-7-23,64.0,61.4,58.0,62.0,58.9,53.0,98,91,80,0.00,40.00,3,1,8,0.01
2014-7-24,62.0,58.8,57.0,57.0,53.3,52.0,92,82,76,0.00,40.00,6,2,10,0.01
2014-7-25,73.0,64.2,57.0,54.0,51.7,49.0,86,66,45,0.00,40.00,6,2,12,0.00
2014-7-26,78.0,65.1,52.0,55.0,52.4,51.0,97,67,40,0.00,40.00,7,2,12,0.00
2014-7-27,81.0,66.8,53.0,54.0,52.6,51.0,95,64,38,0.00,40.00,8,3,13,0.00
2014-7-28,87.0,73.4,56.0,58.0,53.1,50.0,84,53,29,0.00,40.00,6,3,12,0.00
2014-7-29,83.0,71.6,58.0,56.0,52.7,51.0,77,54,33,0.00,40.00,7,2,13,0.00
2014-7-30,82.0,69.4,57.0,58.0,52.1,45.0,94,60,30,0.00,40.00,8,2,14,0.00
2014-7-31,84.0,68.9,56.0,56.0,49.2,46.0,69,51,29,0.00,40.00,7,2,13,0.00
2014-8-1,84.0,71.7,57.0,57.0,53.2,49.0,78,54,36,0.00,40.00,6,2,10,0.00
2014-8-2,82.0,69.8,58.0,63.0,57.8,53.0,85,67,48,0.00,40.00,3,1,7,0.00
2014-8-3,85.0,70.7,59.0,59.0,57.8,56.0,95,67,39,0.00,40.00,7,2,10,0.00
2014-8-4,88.0,74.5,64.0,56.0,54.5,50.0,75,52,30,0.00,40.00,9,4,13,0.00
2014-8-5,76.0,66.5,58.0,58.0,55.9,53.0,91,70,51,0.00,40.00,10,5,13,0.00
2014-8-6,80.0,67.5,60.0,59.0,58.1,56.0,95,74,48,0.00,40.00,3,1,7,0.00
2014-8-7,80.0,72.0,64.0,56.0,54.5,50.0,72,55,42,0.00,40.00,5,2,8,0.00
2014-8-8,79.0,66.9,58.0,53.0,50.1,48.0,78,56,39,0.00,40.00,5,2,8,0.00
2014-8-9,79.0,67.3,54.0,53.0,49.8,48.0,82,56,35,0.00,40.00,9,3,13,0.00
2014-8-10,84.0,66.1,53.0,56.0,52.2,49.0,88,65,38,0.00,40.00,7,2,15,0.00
2014-8-11,97.0,79.7,61.0,67.0,59.1,53.0,76,52,29,0.00,40.00,3,1,7,0.00
2014-8-12,80.0,70.6,66.0,68.0,60.8,54.0,95,74,43,0.00,40.00,5,1,9,0.00
2014-8-13,73.0,65.3,61.0,66.0,60.5,59.0,97,86,61,0.00,40.00,3,0,9,0.02
2014-8-14,70.0,63.8,59.0,61.0,59.5,58.0,99,87,70,0.00,40.00,3,1,6,0.00
2014-8-15,73.0,66.8,64.0,63.0,61.9,60.0,96,85,65,0.00,40.00,3,1,7,0.00
2014-8-16,76.0,69.4,63.0,60.0,59.0,58.0,87,70,53,0.00,40.00,7,3,13,0.00
2014-8-17,79.0,69.0,60.0,60.0,58.5,57.0,91,71,52,0.00,40.00,8,2,13,0.00
2014-8-18,83.0,72.9,59.0,63.0,59.6,55.0,94,65,46,0.00,40.00,7,2,13,0.00
2014-8-19,84.0,71.9,62.0,60.0,58.4,55.0,87,65,43,0.00,40.00,5,1,12,0.00
2014-8-20,73.0,64.9,59.0,54.0,52.4,50.0,77,64,51,0.00,40.00,3,2,10,0.00
2014-8-21,72.0,60.9,54.0,53.0,51.4,50.0,93,72,50,0.00,40.00,2,1,9,0.00
2014-8-22,75.0,63.5,53.0,57.0,53.4,52.0,97,73,47,0.00,40.00,7,2,13,0.00
2014-8-23,82.0,68.3,58.0,58.0,55.8,51.0,96,68,37,0.00,40.00,6,2,10,0.00
2014-8-24,78.0,66.5,58.0,57.0,54.5,52.0,88,68,45,0.00,40.00,3,1,7,0.00
2014-8-25,83.0,69.1,58.0,57.0,55.6,53.0,94,66,36,0.00,40.00,8,2,12,0.00
2014-8-26,87.0,69.9,58.0,61.0,55.3,48.0,92,64,26,0.00,40.00,6,1,8,0.00
2014-8-27,87.0,72.0,60.0,61.0,56.9,53.0,86,62,36,0.00,40.00,6,2,9,0.00
2014-8-28,74.0,65.4,57.0,60.0,57.4,54.0,96,76,62,0.00,40.00,3,1,8,0.00
2014-8-29,74.0,65.0,60.0,59.0,56.4,54.0,91,75,51,0.00,40.00,5,1,8,0.00
2014-8-30,65.0,62.7,61.0,61.0,57.9,54.0,92,84,76,0.00,40.00,2,1,5,0.00
2014-8-31,71.0,61.5,56.0,58.0,55.1,51.0,95,80,53,0.00,40.00,3,1,8,0.01
2014-9-1,76.0,64.6,58.0,56.0,54.0,51.0,88,70,46,0.00,40.00,5,2,7,0.00
2014-9-2,68.0,61.9,56.0,56.0,54.4,52.0,97,77,62,0.00,40.00,6,2,15,0.01
2014-9-3,71.0,60.0,53.0,55.0,52.1,49.0,97,77,45,0.00,40.00,3,1,9,0.01
2014-9-4,74.0,61.6,50.0,54.0,51.6,49.0,98,73,48,0.00,40.00,7,2,14,0.00
2014-9-5,79.0,65.9,53.0,56.0,53.0,49.0,97,67,35,0.00,40.00,9,3,16,0.00
2014-9-6,89.0,69.4,53.0,58.0,52.1,44.0,98,61,21,0.00,40.00,6,2,12,0.00
2014-9-7,86.0,65.5,54.0,58.0,53.0,41.0,99,69,21,0.00,40.00,2,0,5,0.00
2014-9-8,70.0,61.4,57.0,58.0,54.9,52.0,93,80,58,0.00,40.00,3,1,8,0.00
2014-9-9,70.0,62.4,57.0,58.0,53.5,50.0,89,73,55,0.00,40.00,3,1,8,0.00
2014-9-10,70.0,60.5,55.0,55.0,47.1,30.0,97,67,24,0.00,40.00,7,2,16,0.00
2014-9-11,76.0,61.3,49.0,41.0,36.1,30.0,73,44,20,0.00,40.00,7,2,12,0.00
2014-9-12,73.0,60.5,46.0,46.0,37.7,32.0,72,46,22,0.00,40.00,9,3,16,0.00
2014-9-13,82.0,63.3,47.0,47.0,41.8,33.0,84,53,17,0.00,40.00,6,2,12,0.00
2014-9-14,85.0,65.0,48.0,49.0,46.1,42.0,91,56,22,0.00,40.00,6,2,12,0.00
2014-9-15,88.0,67.5,50.0,54.0,48.8,43.0,91,57,22,0.00,40.00,5,1,8,0.00
2014-9-16,74.0,63.8,56.0,57.0,54.4,50.0,87,73,53,0.00,40.00,6,1,10,0.00
2014-9-17,71.0,64.1,58.0,59.0,56.0,54.0,93,76,59,0.00,40.00,7,2,12,0.00
2014-9-18,67.0,63.2,60.0,60.0,58.2,56.0,99,85,71,0.00,40.00,3,1,8,0.00
2014-9-19,76.0,68.3,63.0,58.0,56.5,55.0,83,68,49,0.00,40.00,5,2,9,0.00
2014-9-20,75.0,64.0,56.0,57.0,55.7,55.0,98,76,52,0.00,40.00,7,3,13,0.00
2014-9-21,83.0,65.8,54.0,61.0,56.6,53.0,99,75,45,0.00,40.00,5,1,9,0.00
2014-9-22,73.0,64.8,61.0,58.0,56.6,55.0,87,76,55,0.00,40.00,5,1,10,0.00
2014-9-23,67.0,62.6,58.0,62.0,59.2,55.0,98,89,75,0.00,40.00,5,1,8,0.00
2014-9-24,66.0,62.3,59.0,63.0,60.3,57.0,100,93,76,0.00,40.00,5,2,8,0.02
2014-9-25,69.0,61.5,58.0,59.0,57.4,54.0,99,88,61,0.00,40.00,3,1,7,0.00
2014-9-26,69.0,61.8,58.0,60.0,56.4,54.0,97,83,63,0.00,40.00,5,1,13,0.00
2014-9-27,68.0,60.1,53.0,57.0,53.2,51.0,100,80,54,0.00,40.00,8,3,12,0.00
2014-9-28,65.0,56.3,50.0,56.0,53.3,50.0,100,90,70,0.00,40.00,3,1,7,0.00
2014-9-29,61.0,56.8,52.0,59.0,55.5,52.0,100,96,83,0.00,40.00,3,1,9,0.00
2014-9-30,66.0,58.9,53.0,54.0,51.3,47.0,97,78,53,0.00,40.00,5,1,10,0.00
2014-10-1,67.0,57.7,52.0,53.0,49.9,46.0,97,77,52,0.00,40.00,3,1,8,0.00
2014-10-2,68.0,58.0,50.0,50.0,47.0,41.0,97,69,38,0.00,40.00,7,2,12,0.00
2014-10-3,72.0,56.9,47.0,53.0,49.0,46.0,100,78,46,0.00,40.00,3,1,6,0.00
2014-10-4,73.0,60.6,54.0,56.0,54.0,52.0,97,81,49,0.00,40.00,3,1,6,0.00
2014-10-5,75.0,61.8,51.0,58.0,55.3,51.0,100,82,56,0.00,40.00,7,1,10,0.00
2014-10-6,78.0,63.7,54.0,60.0,57.1,54.0,100,82,53,0.00,40.00,8,1,14,0.00
2014-10-7,68.0,61.0,56.0,60.0,58.0,56.0,100,90,71,0.00,40.00,5,1,7,0.00
2014-10-8,70.0,60.1,54.0,58.0,56.0,54.0,99,87,64,0.00,40.00,5,2,6,0.00
2014-10-9,66.0,57.6,53.0,56.0,55.0,52.0,100,92,68,0.00,40.00,5,1,7,0.00
2014-10-10,66.0,58.6,52.0,56.0,54.3,52.0,100,86,68,0.00,40.00,5,2,13,0.00
2014-10-11,67.0,59.0,53.0,58.0,54.9,50.0,100,88,55,0.00,40.00,3,1,9,0.00
2014-10-12,65.0,58.2,53.0,57.0,53.9,51.0,100,87,63,0.00,40.00,2,0,5,0.00
2014-10-13,69.0,60.0,51.0,57.0,52.4,47.0,100,79,48,0.00,40.00,6,1,13,0.00
2014-10-14,62.0,56.5,53.0,55.0,52.3,50.0,100,87,65,0.00,40.00,5,1,9,0.00
2014-10-15,60.0,55.1,52.0,55.0,52.3,47.0,98,91,73,0.00,40.00,6,1,20,0.00
2014-10-16,70.0,57.1,51.0,51.0,48.5,43.0,96,76,40,0.00,40.00,3,0,6,0.00
2014-10-17,61.0,57.5,54.0,57.0,54.3,49.0,99,89,74,0.00,40.00,1,0,3,0.00
2014-10-18,64.0,60.1,57.0,61.0,58.7,56.0,100,95,84,0.00,40.00,3,1,8,0.00
2014-10-19,74.0,62.3,56.0,59.0,56.4,55.0,100,83,55,0.00,40.00,5,1,14,0.00
2014-10-20,63.0,59.4,55.0,59.0,55.8,52.0,99,88,73,0.00,40.00,5,1,8,0.00
2014-10-21,65.0,57.3,53.0,54.0,51.8,48.0,99,83,62,0.00,40.00,5,1,10,0.00
2014-10-22,58.0,56.0,54.0,57.0,54.0,48.0,100,93,70,0.00,40.00,5,2,13,0.00
2014-10-23,58.0,52.3,50.0,52.0,49.3,46.0,99,90,71,0.00,40.00,3,1,14,0.00
2014-10-24,58.0,52.8,48.0,49.0,46.6,45.0,94,80,63,0.00,40.00,5,1,9,0.01
2014-10-25,58.0,53.3,47.0,56.0,50.5,46.0,100,91,74,0.00,40.00,24,5,35,0.01
2014-10-26,54.0,51.6,49.0,48.0,45.5,44.0,90,80,73,0.00,40.00,24,11,35,0.00
2014-10-27,58.0,52.2,48.0,47.0,44.8,41.0,91,77,57,0.00,40.00,9,5,13,0.00
2014-10-28,58.0,54.2,51.0,54.0,50.5,42.0,97,87,64,0.00,40.00,13,7,17,0.00
2014-10-29,62.0,57.0,50.0,54.0,52.4,50.0,100,85,70,0.00,40.00,14,8,20,0.00
2014-10-30,58.0,55.1,51.0,57.0,54.4,51.0,100,98,93,0.00,40.00,2,1,7,0.01
2014-10-31,55.0,52.0,50.0,54.0,50.9,48.0,100,96,78,0.00,40.00,6,1,10,0.03
2014-11-1,53.0,49.3,46.0,51.0,46.8,42.0,100,92,69,0.00,40.00,3,1,8,0.00
2014-11-2,56.0,50.5,43.0,53.0,48.5,43.0,100,93,71,0.00,40.00,3,0,7,0.00
2014-11-3,57.0,54.3,53.0,55.0,53.3,51.0,99,96,91,0.00,40.00,1,0,8,0.01
2014-11-4,57.0,54.6,52.0,55.0,51.2,46.0,100,89,73,0.00,40.00,5,1,9,0.00
2014-11-5,57.0,54.7,52.0,56.0,52.6,49.0,100,93,78,0.00,40.00,1,0,6,0.01
2014-11-6,62.0,56.0,52.0,56.0,51.9,45.0,100,86,69,0.00,40.00,8,3,23,0.03
2014-11-7,59.0,50.9,41.0,48.0,44.2,38.0,100,81,48,0.00,40.00,5,1,8,0.00
2014-11-8,56.0,46.4,39.0,46.0,40.9,39.0,100,85,64,0.00,40.00,5,1,8,0.00
2014-11-9,54.0,48.8,45.0,51.0,47.4,43.0,100,95,78,0.00,40.00,3,1,10,0.00
2014-11-10,53.0,45.2,37.0,46.0,40.1,34.0,100,84,54,0.00,40.00,5,2,9,0.00
2014-11-11,47.0,39.5,32.0,37.0,22.6,10.0,100,57,27,0.00,40.00,7,3,14,0.00
2014-11-12,46.0,37.0,28.0,15.0,8.9,3.0,57,33,20,0.00,40.00,6,3,12,0.00
2014-11-13,48.0,36.3,27.0,21.0,12.7,5.0,70,41,18,0.00,40.00,5,2,10,0.00
2014-11-14,45.0,33.8,26.0,23.0,17.0,12.0,80,53,26,0.00,40.00,6,2,13,0.00
2014-11-15,47.0,33.9,23.0,22.0,17.7,10.0,79,56,23,0.00,40.00,5,1,8,0.00
2014-11-16,50.0,37.0,28.0,25.0,17.6,14.0,74,47,25,0.00,40.00,6,2,10,0.00
2014-11-17,55.0,37.5,28.0,31.0,23.8,17.0,83,62,24,0.00,40.00,3,1,5,0.00
2014-11-18,48.0,36.5,29.0,34.0,27.8,23.0,92,72,43,0.00,40.00,2,0,3,0.00
2014-11-19,52.0,42.5,33.0,37.0,31.5,25.0,95,67,37,0.00,40.00,2,1,5,0.00
2014-11-20,52.0,47.1,42.0,48.0,43.8,31.0,99,89,57,0.00,40.00,2,0,5,0.00
2014-11-21,51.0,48.3,47.0,51.0,47.3,43.0,100,96,82,0.00,40.00,6,1,15,0.01
2014-11-22,51.0,45.9,43.0,44.0,42.5,41.0,98,88,77,0.00,40.00,3,1,8,0.01
2014-11-23,56.0,47.2,41.0,48.0,45.2,41.0,100,93,69,0.00,40.00,5,2,18,0.01
2014-11-24,53.0,44.4,39.0,50.0,41.9,38.0,100,92,74,0.00,40.00,2,1,8,0.00
2014-11-25,56.0,51.5,48.0,54.0,50.7,47.0,100,97,90,0.00,40.00,7,2,21,0.01
2014-11-26,59.0,56.3,55.0,54.0,52.6,49.0,94,88,77,0.00,40.00,7,3,22,0.00
2014-11-27,58.0,56.1,53.0,52.0,49.2,44.0,96,78,61,0.00,40.00,8,4,21,0.00
2014-11-28,54.0,45.4,37.0,52.0,44.4,37.0,100,97,91,0.00,40.00,6,3,15,0.05
2014-11-29,39.0,31.1,24.0,38.0,24.3,12.0,100,78,44,0.00,40.00,17,5,30,0.00
2014-11-30,37.0,28.0,21.0,22.0,20.3,18.0,98,74,51,0.00,40.00,7,3,12,0.00
2014-12-1,41.0,30.9,23.0,24.0,20.5,17.0,86,67,39,0.00,40.00,3,1,5,0.00
2014-12-2,41.0,33.3,26.0,27.0,25.6,24.0,97,74,51,0.00,40.00,7,3,14,0.00
2014-12-3,50.0,38.8,31.0,29.0,26.3,22.0,81,62,36,0.00,40.00,6,2,8,0.00
2014-12-4,46.0,42.4,40.0,44.0,37.1,30.0,100,82,65,0.00,40.00,3,0,6,0.00
2014-12-5,52.0,46.1,43.0,49.0,45.3,43.0,100,97,83,0.00,40.00,3,1,6,0.01
2014-12-6,54.0,48.8,45.0,49.0,47.4,45.0,100,95,81,0.00,40.00,5,2,14,0.01
2014-12-7,55.0,46.7,40.0,48.0,44.3,40.0,100,92,68,0.00,40.00,2,0,3,0.00
2014-12-8,58.0,50.5,47.0,50.0,45.3,40.0,99,84,55,0.00,40.00,3,1,7,0.02
2014-12-9,60.0,53.9,49.0,55.0,50.4,49.0,100,89,71,0.00,40.00,7,3,24,0.03
2014-12-10,66.0,55.7,51.0,53.0,49.2,43.0,100,80,48,0.00,40.00,20,9,25,0.00
2014-12-11,56.0,51.4,48.0,49.0,44.4,39.0,99,78,58,0.00,40.00,12,5,22,0.00
2014-12-12,54.0,49.7,47.0,46.0,43.3,42.0,95,79,67,0.00,40.00,8,3,17,0.00
2014-12-13,52.0,44.7,38.0,45.0,42.2,38.0,100,91,71,0.00,40.00,2,1,6,0.00
2014-12-14,56.0,43.0,33.0,40.0,33.7,26.0,100,74,34,0.00,40.00,6,1,12,0.00
2014-12-15,55.0,47.3,36.0,36.0,32.1,25.0,74,56,42,0.00,40.00,5,1,8,0.00
2014-12-16,50.0,46.3,39.0,42.0,36.2,31.0,95,69,51,0.00,40.00,3,1,8,0.00
2014-12-17,49.0,44.3,38.0,46.0,41.8,36.0,100,91,79,0.00,40.00,1,0,2,0.00
2014-12-18,48.0,46.2,44.0,48.0,45.6,44.0,100,98,91,0.00,40.00,5,2,9,0.02
2014-12-19,52.0,48.0,46.0,48.0,43.2,39.0,100,84,67,0.00,40.00,6,3,12,0.02
2014-12-20,55.0,46.1,44.0,53.0,44.8,41.0,100,96,81,0.00,40.00,9,3,27,0.00
2014-12-21,55.0,51.6,49.0,49.0,46.3,44.0,92,82,71,0.00,40.00,7,2,15,0.00
2014-12-22,51.0,45.1,39.0,45.0,41.0,39.0,100,87,65,0.00,40.00,2,1,8,0.00
2014-12-23,54.0,46.1,42.0,50.0,42.7,37.0,100,88,76,0.00,40.00,6,2,13,0.03
2014-12-24,44.0,41.7,39.0,42.0,40.0,38.0,99,93,79,0.00,40.00,5,1,8,0.03
2014-12-25,46.0,41.2,37.0,41.0,38.7,37.0,100,91,74,0.00,40.00,6,2,9,0.00
2014-12-26,45.0,40.2,39.0,40.0,37.8,35.0,99,91,68,0.00,40.00,3,1,7,0.00
2014-12-27,49.0,43.9,41.0,45.0,41.5,38.0,99,91,78,0.00,40.00,7,3,17,0.01
2014-12-28,44.0,41.0,39.0,41.0,38.8,37.0,98,92,78,0.00,40.00,5,1,9,0.00
2014-12-29,43.0,38.1,33.0,38.0,27.4,21.0,100,67,45,0.00,40.00,10,4,18,0.00
2014-12-30,39.0,31.5,27.0,22.0,18.0,14.0,80,59,38,0.00,40.00,5,2,7,0.00
2014-12-31,39.0,31.4,27.0,23.0,21.0,18.0,81,66,43,0.00,40.00,3,1,8,0.00
2015-1-1,45.0,32.7,26.0,28.0,25.0,22.0,88,74,48,0.00,40.00,3,1,5,0.00
2015-1-2,41.0,36.7,31.0,41.0,32.3,26.0,99,84,71,0.00,40.00,5,1,9,0.00